Medicine Hat, Alberta

8:59 AM MST on December 14, 2017 (GMT -0700)
Medicine Hat

Weather History for CYXH - October, 2013

Change the Weather History Date:

Thursday, October 3, 2013

  Actual Average Record
Temperature  
Mean Temperature 24 °F -  
Max Temperature 46 °F 56 °F 84 °F (2011)
Min Temperature 1 °F 30 °F -11 °F (2014)
Degree Days  
Heating Degree Days 42    
Moisture  
Dew Point 29 °F    
Average Humidity 79    
Maximum Humidity 100    
Minimum Humidity 50    
Precipitation  
Precipitation 0.00 in 0.02 in - ()
Sea Level Pressure  
Sea Level Pressure 30.32 in    
Wind  
Wind Speed 7 mph ()    
Max Wind Speed 23 mph    
Max Gust Speed -    
Visibility 9.9 miles    
Events      
Averages and records for this station are not official NWS values.
T = Trace of Precipitation, MM = Missing Value Source: Averaged Metar Reports

Daily Weather History Graph

Daily Weather History Graph

Search for Another Location

Airport or City:

Trip Planner

Search our weather history database for the weather conditions in past years. The results will help you decide how hot, cold, wet, or windy it might be!

Date:

Astronomy

Oct. 03, 2013 Rise Set
Actual Time 7:26 AM MDT 6:56 PM MDT
Civil Twilight 6:54 AM MDT 7:28 PM MDT
Nautical Twilight 6:16 AM MDT 8:05 PM MDT
Astronomical Twilight 5:38 AM MDT 8:43 PM MDT
Moon 5:58 AM MDT (10/3) 6:08 PM MDT (10/3)
Length of Visible Light 12h 34m
Length of Day
11h 29m
Waning Crescent, 2% of the Moon is Illuminated
Oct 3
Waning Crescent
Oct 4
New
Oct 11
First Quarter
Oct 18
Full
Oct 26
Last Quarter

Hourly Weather History & Observations

Time (MDT) Temp. Windchill Dew Point Humidity Pressure Visibility Wind Dir Wind Speed Gust Speed Precip Events Conditions
12:00 AM 8 °F - 6 °F 85% 30.21 in - NNW 23.0 mph - -  
12:00 AM 32.0 °F - 30.2 °F 93% 30.21 in 9.0 mi Calm Calm - N/A   Mostly Cloudy
1:00 AM 35.6 °F - 32.0 °F 87% 30.20 in 9.0 mi Calm Calm - N/A   Overcast
2:00 AM 35.6 °F - 33.8 °F 93% 30.21 in 9.0 mi North 2.3 mph - N/A   Overcast
3:00 AM 37.4 °F 32.8 °F 33.8 °F 87% 30.23 in 9.0 mi North 5.8 mph - N/A   Overcast
3:25 AM 37.4 °F 32.8 °F 33.8 °F 87% 30.24 in 9.0 mi North 5.8 mph - N/A   Overcast
3:41 AM 37.4 °F 32.1 °F 33.8 °F 87% 30.24 in 9.0 mi NNE 6.9 mph - N/A   Overcast
4:00 AM 37.4 °F 31.4 °F 33.8 °F 87% 30.24 in 9.0 mi North 8.1 mph - N/A   Overcast
5:00 AM 35.6 °F 30.7 °F 35.6 °F 100% 30.25 in 9.0 mi North 5.8 mph - N/A   Overcast
6:00 AM 4 °F - 2 °F 84% 30.25 in - North 16.1 mph - -  
6:00 AM 35.6 °F 29.2 °F 35.6 °F 100% 30.26 in 9.0 mi North 8.1 mph - N/A   Overcast
6:43 AM 37.4 °F 30.8 °F 35.6 °F 93% 30.28 in 9.0 mi North 9.2 mph - N/A   Overcast
7:00 AM 37.4 °F 31.4 °F 35.6 °F 93% 30.29 in 30.0 mi North 8.1 mph - N/A   Mostly Cloudy
8:00 AM 37.4 °F 32.8 °F 33.8 °F 87% 30.32 in 30.0 mi ENE 5.8 mph - N/A   Mostly Cloudy
9:00 AM 39.2 °F 37.0 °F 32.0 °F 75% 30.34 in 30.0 mi NE 3.5 mph - N/A   Scattered Clouds
10:00 AM 41.0 °F 37.1 °F 32.0 °F 70% 30.35 in 30.0 mi NE 5.8 mph - N/A   Mostly Cloudy
11:00 AM 42.8 °F 38.6 °F 33.8 °F 70% 30.37 in 30.0 mi NNE 6.9 mph - N/A   Mostly Cloudy
12:00 PM 4 °F - 1 °F 82% 30.24 in - North 21.9 mph - -  
12:00 PM 42.8 °F 38.0 °F 32.0 °F 66% 30.38 in 30.0 mi North 8.1 mph - N/A   Mostly Cloudy
1:00 PM 46.4 °F 42.9 °F 32.0 °F 57% 30.38 in 30.0 mi NNW 6.9 mph - N/A   Mostly Cloudy
2:00 PM 48.2 °F - 30.2 °F 50% 30.37 in 30.0 mi North 10.4 mph - N/A   Mostly Cloudy
3:00 PM 46.4 °F 41.9 °F 33.8 °F 62% 30.37 in 30.0 mi NW 9.2 mph - N/A   Overcast
4:00 PM 48.2 °F - 32.0 °F 54% 30.38 in 30.0 mi North 6.9 mph - N/A   Overcast
5:00 PM 46.4 °F 42.9 °F 32.0 °F 57% 30.40 in 30.0 mi NW 6.9 mph - N/A   Overcast
6:00 PM 2 °F - -0 °F 86% 30.26 in - North 19.6 mph - -  
6:00 PM 46.4 °F 44.3 °F 32.0 °F 57% 30.42 in 30.0 mi NW 4.6 mph - N/A   Mostly Cloudy
7:00 PM 42.8 °F 40.1 °F 37.4 °F 81% 30.43 in 30.0 mi South 4.6 mph - N/A   Mostly Cloudy
8:00 PM 42.8 °F 40.1 °F 35.6 °F 76% 30.45 in 15.0 mi NNW 4.6 mph - N/A   Overcast
9:00 PM 41.0 °F 38.0 °F 35.6 °F 81% 30.45 in 15.0 mi North 4.6 mph - N/A   Mostly Cloudy
11:00 PM 33.8 °F 30.8 °F 32.0 °F 93% 30.48 in 9.0 mi WSW 3.5 mph - N/A   Clear